2024-05-13T18:07:32Z,gmbox01,202405131807,75,22.01,74,10.8,20.4,180.0,0.0,21.20,1000.7,64.6,18.98,36.74,10465,18.90,29.99,11024,19.56,73.4,426,28
2024-05-13T18:17:32Z,gmbox01,202405131817,75,21.47,41,8.4,18.0,180.0,0.0,21.25,1000.7,65.2,18.86,36.73,10466,18.73,29.99,11024,19.13,73.8,421,29
2024-05-13T18:27:31Z,gmbox01,202405131827,76,20.97,0,7.2,16.8,180.0,0.0,21.15,1000.7,65.8,18.77,36.71,10467,18.67,29.98,11025,18.61,74.5,424,30
2024-05-13T18:37:32Z,gmbox01,202405131837,77,20.06,32,9.6,14.4,180.0,0.0,20.85,1000.6,69.4,18.66,36.69,10468,18.56,29.98,11025,17.84,78.4,423,31
2024-05-13T18:47:32Z,gmbox01,202405131847,78,19.48,0,6.0,12.0,180.0,0.0,20.49,1000.7,71.7,18.60,36.69,10468,18.47,29.98,11025,17.42,80.5,430,32
2024-05-13T18:57:32Z,gmbox01,202405131857,78,19.11,0,4.8,9.6,180.0,0.0,20.12,1000.6,73.0,18.52,36.69,10468,18.27,29.97,11026,17.06,81.9,428,33
2024-05-13T19:07:32Z,gmbox01,202405131907,79,18.40,0,0.0,7.2,270.0,0.0,19.67,1000.6,75.5,18.41,36.69,10468,18.17,29.97,11026,17.06,82.4,433,34
2024-05-13T19:17:32Z,gmbox01,202405131917,79,17.79,0,1.2,3.6,225.0,0.0,19.18,1000.6,78.8,18.32,36.69,10468,18.01,29.95,11027,16.63,84.5,434,35
2024-05-13T19:27:32Z,gmbox01,202405131927,79,17.39,0,0.0,3.6,270.0,0.0,18.68,1000.6,80.3,18.24,36.68,10469,17.88,29.94,11028,16.51,84.8,441,36
2024-05-13T19:37:32Z,gmbox01,202405131937,80,17.25,0,0.0,3.6,270.0,0.0,18.28,1000.6,80.6,18.17,36.68,10469,17.70,29.94,11028,16.25,85.6,438,37
2024-05-13T19:47:32Z,gmbox01,202405131947,80,17.25,0,0.0,3.6,270.0,0.0,17.97,1000.6,79.8,18.06,36.66,10470,17.55,29.93,11029,16.25,84.9,436,38
2024-05-13T19:57:32Z,gmbox01,202405131957,81,16.71,0,0.0,0.0,270.0,0.0,17.61,1000.6,82.0,17.96,36.66,10470,17.38,29.91,11031,15.65,87.4,459,39
2024-05-13T20:07:32Z,gmbox01,202405132007,81,16.48,0,0.0,0.0,270.0,0.0,17.28,1000.6,83.3,17.88,36.65,10471,17.24,29.90,11032,15.55,88.3,457,40
2024-05-13T20:17:32Z,gmbox01,202405132017,81,16.48,0,0.0,0.0,270.0,0.0,16.99,1000.6,83.6,17.83,36.64,10472,17.12,29.90,11032,15.17,89.8,454,41
2024-05-13T20:27:32Z,gmbox01,202405132027,83,16.38,0,0.0,0.0,270.0,0.0,16.76,1000.7,85.6,17.70,36.64,10472,16.93,29.88,11033,14.68,93.8,461,42
2024-05-13T20:37:32Z,gmbox01,202405132037,82,15.97,0,0.0,0.0,270.0,0.0,16.49,1000.7,85.9,17.62,36.63,10473,16.77,29.87,11034,14.91,91.6,468,43
2024-05-13T20:47:32Z,gmbox01,202405132047,83,15.33,0,0.0,0.0,270.0,0.0,16.13,1000.6,87.4,17.52,36.63,10473,16.62,29.86,11035,14.56,91.9,452,44
2024-05-13T20:57:32Z,gmbox01,202405132057,83,14.72,0,0.0,0.0,270.0,0.0,15.73,1000.6,88.8,17.42,36.60,10474,16.44,29.84,11036,13.95,94.1,460,45
2024-05-13T21:07:32Z,gmbox01,202405132107,83,14.62,0,0.0,0.0,270.0,0.0,15.38,1000.6,91.0,17.34,36.60,10474,16.34,29.84,11036,13.44,97.1,498,46
2024-05-13T21:17:32Z,gmbox01,202405132117,84,14.42,0,0.0,0.0,270.0,0.0,15.07,1000.6,92.0,17.21,36.59,10475,16.18,29.83,11037,13.21,99.0,517,47
2024-05-13T21:27:32Z,gmbox01,202405132127,84,14.08,0,0.0,0.0,270.0,0.0,14.78,1000.6,91.5,17.14,36.59,10475,16.05,29.83,11037,13.27,96.9,508,48
2024-05-13T21:37:32Z,gmbox01,202405132137,84,13.64,0,0.0,0.0,270.0,0.0,14.45,1000.6,91.5,17.05,36.58,10476,15.93,29.83,11037,12.82,97.1,555,49
2024-05-13T21:47:32Z,gmbox01,202405132147,85,13.54,0,0.0,0.0,270.0,0.0,14.17,1000.5,93.4,16.92,36.58,10476,15.77,29.84,11036,12.64,99.0,517,50
2024-05-13T21:57:32Z,gmbox01,202405132157,85,13.37,0,0.0,0.0,270.0,0.0,13.93,1000.5,93.4,16.85,36.58,10476,15.65,29.84,11036,12.56,99.3,575,51
2024-05-13T22:07:32Z,gmbox01,202405132207,85,13.54,0,0.0,0.0,270.0,0.0,13.77,1000.5,94.3,16.80,36.57,10477,15.52,29.86,11035,12.49,100.0,521,52
2024-05-13T22:17:32Z,gmbox01,202405132217,86,13.47,0,0.0,0.0,270.0,0.0,13.62,1000.5,94.4,16.71,36.57,10477,15.44,29.87,11034,12.09,100.0,542,53
2024-05-13T22:27:32Z,gmbox01,202405132227,88,13.31,0,0.0,3.6,270.0,0.0,13.48,1000.5,94.3,16.60,36.57,10477,15.29,29.88,11033,12.08,100.0,590,54
2024-05-13T22:37:32Z,gmbox01,202405132237,87,13.31,0,0.0,0.0,292.5,0.0,13.34,1000.5,94.0,16.52,36.53,10479,15.15,29.88,11033,11.62,100.0,597,55
2024-05-13T22:47:32Z,gmbox01,202405132247,88,13.00,0,0.0,0.0,270.0,0.0,13.19,1000.4,94.3,16.41,36.53,10479,15.09,29.91,11031,11.83,100.0,564,56
2024-05-13T22:57:32Z,gmbox01,202405132257,88,12.77,0,0.0,0.0,270.0,0.0,13.02,1000.4,94.1,16.31,36.52,10480,14.95,29.92,11030,12.07,98.8,551,57
2024-05-13T23:07:32Z,gmbox01,202405132307,87,12.63,0,0.0,0.0,270.0,0.0,12.87,1000.3,94.9,16.27,36.50,10481,14.86,29.94,11028,11.78,100.0,542,58
2024-05-13T23:17:32Z,gmbox01,202405132317,88,13.10,0,0.0,0.0,270.0,0.0,12.87,1000.3,95.8,16.17,36.49,10482,14.73,29.95,11027,12.07,100.0,582,59
2024-05-13T23:27:32Z,gmbox01,202405132327,88,12.73,0,0.0,0.0,270.0,0.0,12.76,1000.2,95.1,16.09,36.49,10482,14.68,29.98,11025,11.63,100.0,560,60
2024-05-13T23:37:32Z,gmbox01,202405132337,88,12.87,0,0.0,0.0,270.0,0.0,12.72,1000.2,96.1,16.00,36.48,10483,14.57,29.99,11024,11.89,100.0,575,61
2024-05-13T23:47:32Z,gmbox01,202405132347,88,12.63,0,0.0,3.6,270.0,0.0,12.60,1000.1,95.3,15.95,36.47,10484,14.48,30.02,11021,11.52,100.0,667,62
2024-05-13T23:57:32Z,gmbox01,202405132357,89,12.16,0,0.0,0.0,270.0,0.0,12.44,1000.0,95.0,15.84,36.47,10484,14.37,30.04,11020,11.34,100.0,695,63
2024-05-14T00:17:32Z,gmbox01,202405140017,90,12.33,0,0.0,0.0,270.0,0.0,13.16,999.6,96.1,15.71,36.47,10484,14.21,30.07,11017,11.23,100.0,610,1
2024-05-14T00:27:33Z,gmbox01,202405140027,88,11.96,0,0.0,0.0,270.0,0.0,12.80,999.6,95.7,15.61,36.44,10485,14.12,30.10,11015,11.24,100.0,647,2
2024-05-14T00:37:32Z,gmbox01,202405140037,90,11.79,0,0.0,0.0,270.0,0.0,12.48,999.5,95.6,15.54,36.44,10485,14.06,30.10,11015,11.14,99.4,615,3
2024-05-14T00:47:32Z,gmbox01,202405140047,89,11.79,0,0.0,0.0,270.0,0.0,12.23,999.5,96.4,15.48,36.43,10486,13.95,30.10,11015,10.54,100.0,626,4
2024-05-14T00:57:32Z,gmbox01,202405140057,89,11.59,0,0.0,0.0,270.0,0.0,12.02,999.5,96.1,15.41,36.43,10486,13.90,30.13,11013,10.93,100.0,652,5
2024-05-14T01:07:32Z,gmbox01,202405140107,88,11.39,0,0.0,0.0,270.0,0.0,11.81,999.4,95.8,15.38,36.43,10486,13.80,30.15,11011,10.75,99.9,653,6
2024-05-14T01:17:33Z,gmbox01,202405140117,89,11.45,0,0.0,0.0,270.0,0.0,11.67,999.3,96.6,15.27,36.43,10486,13.73,30.16,11010,10.60,100.0,678,7
2024-05-14T01:27:32Z,gmbox01,202405140127,88,11.62,0,0.0,0.0,270.0,0.0,11.59,999.3,96.9,15.22,36.43,10486,13.68,30.16,11010,10.43,100.0,671,8
2024-05-14T01:37:33Z,gmbox01,202405140137,90,11.76,0,0.0,0.0,270.0,0.0,11.54,999.3,97.1,15.16,36.43,10486,13.58,30.16,11010,10.56,100.0,631,9
2024-05-14T01:47:32Z,gmbox01,202405140147,90,11.69,0,0.0,0.0,270.0,0.0,11.50,999.2,97.0,15.02,36.43,10486,13.50,30.19,11008,10.89,100.0,573,10
2024-05-14T01:57:33Z,gmbox01,202405140157,90,11.79,0,0.0,0.0,270.0,0.0,11.51,999.2,97.4,14.98,36.43,10486,13.42,30.21,11006,10.25,100.0,598,11
2024-05-14T02:07:32Z,gmbox01,202405140207,90,11.52,0,0.0,0.0,270.0,0.0,11.45,999.2,97.3,14.92,36.43,10486,13.38,30.21,11006,10.89,100.0,591,12
2024-05-14T02:17:33Z,gmbox01,202405140217,90,11.28,0,0.0,0.0,270.0,0.0,11.35,999.1,96.7,14.90,36.43,10486,13.31,30.21,11006,10.60,100.0,574,13
2024-05-14T02:27:33Z,gmbox01,202405140227,89,11.22,0,2.4,3.6,315.0,0.0,11.22,999.1,96.8,14.80,36.43,10486,13.25,30.22,11005,9.48,100.0,663,14
2024-05-14T02:37:33Z,gmbox01,202405140237,90,10.98,0,0.0,3.6,270.0,0.0,11.10,999.0,96.8,14.76,36.43,10486,13.16,30.24,11003,10.17,100.0,654,15
2024-05-14T02:47:33Z,gmbox01,202405140247,90,11.18,0,0.0,0.0,270.0,0.0,11.06,998.9,97.6,14.68,36.43,10486,13.14,30.24,11003,9.74,100.0,694,16
2024-05-14T02:57:33Z,gmbox01,202405140257,90,11.25,0,0.0,3.6,315.0,0.0,11.02,998.9,97.4,14.62,36.43,10486,13.05,30.27,11001,9.67,100.0,682,17
2024-05-14T03:07:33Z,gmbox01,202405140307,90,11.08,0,0.0,0.0,270.0,0.0,10.98,998.8,97.3,14.58,36.43,10486,12.98,30.29,10999,10.40,100.0,657,18
2024-05-14T03:17:33Z,gmbox01,202405140317,92,11.28,0,0.0,0.0,270.0,0.0,11.00,998.8,97.4,14.51,36.43,10486,12.93,30.29,10999,10.58,100.0,560,19
2024-05-14T03:27:33Z,gmbox01,202405140327,91,11.52,0,0.0,0.0,270.0,0.0,11.08,998.8,97.4,14.41,36.43,10486,12.88,30.29,10999,10.89,100.0,548,20
2024-05-14T03:37:33Z,gmbox01,202405140337,92,12.30,0,0.0,2.4,270.0,0.0,11.32,998.8,97.7,14.40,36.43,10486,12.82,30.29,10999,10.96,100.0,544,21
2024-05-14T03:47:33Z,gmbox01,202405140347,93,12.16,0,0.0,0.0,270.0,0.0,11.46,998.8,97.4,14.35,36.43,10486,12.77,30.28,11000,10.94,100.0,559,22
2024-05-14T03:57:33Z,gmbox01,202405140357,92,11.59,0,0.0,0.0,270.0,0.0,11.43,998.7,96.8,14.27,36.43,10486,12.73,30.28,11000,10.73,100.0,560,23
2024-05-14T04:07:33Z,gmbox01,202405140407,92,11.59,0,3.6,3.6,180.0,0.0,11.43,998.7,96.9,14.25,36.43,10486,12.65,30.29,10999,10.09,100.0,622,24
2024-05-14T04:17:33Z,gmbox01,202405140417,93,12.06,74,10.8,9.6,90.0,0.0,11.51,998.7,97.4,14.16,36.43,10486,12.61,30.22,11005,10.18,100.0,589,25
2024-05-14T04:27:33Z,gmbox01,202405140427,93,13.64,106,10.8,14.4,180.0,0.0,11.96,998.7,94.4,14.13,36.43,10486,12.56,30.23,11004,11.44,100.0,466,26
2024-05-14T04:37:33Z,gmbox01,202405140437,95,13.95,135,3.6,10.8,180.0,0.0,12.43,998.7,93.9,14.08,36.43,10486,12.53,30.21,11006,12.22,100.0,464,27
2024-05-14T04:47:33Z,gmbox01,202405140447,95,13.95,170,7.2,10.8,135.0,0.0,12.80,998.7,92.3,14.03,36.43,10486,12.52,30.19,11008,11.82,100.0,453,28
2024-05-14T04:57:33Z,gmbox01,202405140457,97,14.45,187,3.6,10.8,225.0,0.0,13.18,998.7,91.9,14.02,36.43,10486,12.50,30.15,11011,12.38,100.0,448,29
2024-05-14T05:07:33Z,gmbox01,202405140507,96,14.69,216,10.8,10.8,135.0,0.0,13.52,998.7,91.5,13.95,36.43,10486,12.48,30.14,11012,12.55,100.0,448,30
2024-05-14T05:17:33Z,gmbox01,202405140517,96,15.30,245,7.2,15.6,180.0,0.0,13.92,998.7,90.2,13.89,36.43,10486,12.48,30.10,11015,13.11,100.0,438,31
2024-05-14T05:27:33Z,gmbox01,202405140527,97,15.77,277,7.2,18.0,157.5,0.0,14.33,998.7,88.0,13.84,36.43,10486,12.51,30.08,11016,13.45,99.7,437,32
2024-05-14T05:37:33Z,gmbox01,202405140537,97,16.21,303,10.8,24.0,135.0,0.0,14.75,998.7,85.2,13.82,36.43,10486,12.53,30.08,11016,13.68,97.2,431,33
2024-05-14T05:47:33Z,gmbox01,202405140547,97,16.78,332,8.4,19.2,180.0,0.0,15.20,998.7,85.9,13.79,36.43,10486,12.59,30.10,11015,14.50,96.6,433,34
2024-05-14T05:57:33Z,gmbox01,202405140557,97,17.22,358,14.4,20.4,135.0,0.0,15.68,998.7,81.8,13.73,36.43,10486,12.66,30.10,11015,14.73,93.8,430,35
2024-05-14T06:07:33Z,gmbox01,202405140607,97,17.66,387,16.8,21.6,180.0,0.0,16.14,998.7,79.0,13.76,36.43,10486,12.74,30.10,11015,15.11,90.4,426,36
2024-05-14T06:17:33Z,gmbox01,202405140617,97,18.23,412,10.8,21.6,135.0,0.0,16.65,998.7,75.3,13.70,36.42,10487,12.82,30.10,11015,15.71,86.3,424,37
2024-05-14T06:27:33Z,gmbox01,202405140627,98,18.64,445,7.2,21.6,135.0,0.0,17.14,998.8,73.6,13.69,36.42,10487,12.96,30.10,11015,16.12,83.8,421,38
2024-05-14T06:37:33Z,gmbox01,202405140637,98,19.18,483,7.2,18.0,135.0,0.0,17.64,998.8,72.8,13.66,36.42,10487,13.09,30.10,11015,16.75,82.1,419,39
2024-05-14T06:47:33Z,gmbox01,202405140647,98,19.48,512,14.4,20.4,135.0,0.0,18.10,998.8,71.0,13.66,36.42,10487,13.23,30.10,11015,17.00,80.0,422,40
2024-05-14T06:57:33Z,gmbox01,202405140657,97,20.12,545,9.6,24.0,45.0,0.0,18.60,998.7,69.5,13.66,36.43,10486,13.37,30.10,11015,17.75,78.0,417,41
2024-05-14T07:07:33Z,gmbox01,202405140707,97,20.56,587,12.0,20.4,135.0,0.0,19.09,998.7,68.0,13.69,36.43,10486,13.52,30.10,11015,18.05,76.1,414,42
2024-05-14T07:17:33Z,gmbox01,202405140717,97,21.00,616,12.0,24.0,135.0,0.0,19.56,998.7,66.9,13.73,36.44,10485,13.70,30.08,11016,18.51,75.0,412,43
2024-05-14T07:27:33Z,gmbox01,202405140727,97,21.30,648,13.2,25.2,135.0,0.0,20.00,998.6,64.9,13.74,36.43,10486,13.88,30.08,11016,18.65,72.9,410,44
2024-05-14T07:37:33Z,gmbox01,202405140737,97,21.68,677,14.4,25.2,180.0,0.0,20.43,998.6,63.8,13.74,36.42,10487,14.09,30.07,11017,19.08,71.2,416,45
2024-05-14T07:47:33Z,gmbox01,202405140747,97,22.12,703,9.6,27.6,135.0,0.0,20.85,998.6,63.1,13.80,36.42,10487,14.38,30.06,11018,19.63,71.1,417,46
2024-05-14T07:57:33Z,gmbox01,202405140757,97,22.56,735,10.8,21.6,135.0,0.0,21.28,998.5,60.8,13.87,36.41,10488,14.62,30.05,11019,20.05,68.6,421,47
2024-05-14T08:07:33Z,gmbox01,202405140807,97,22.76,770,10.8,25.2,90.0,0.0,21.64,998.4,62.5,13.98,36.40,10489,14.89,30.04,11020,20.19,69.0,423,48
2024-05-14T08:17:33Z,gmbox01,202405140817,97,22.99,793,7.2,21.6,135.0,0.0,21.98,998.3,60.7,14.06,36.40,10489,15.23,30.02,11021,20.44,67.6,424,49
2024-05-14T08:27:33Z,gmbox01,202405140827,99,23.40,822,13.2,20.4,180.0,0.0,22.34,998.3,59.6,14.20,36.40,10489,15.56,30.01,11022,20.90,66.8,429,50
2024-05-14T08:37:33Z,gmbox01,202405140837,97,23.67,858,10.8,21.6,90.0,0.0,22.66,998.2,58.9,14.30,36.40,10489,15.87,30.01,11022,21.09,66.3,417,51
2024-05-14T08:47:33Z,gmbox01,202405140847,97,23.60,880,18.0,27.6,135.0,0.0,22.89,998.2,60.3,14.41,36.40,10489,16.23,30.01,11022,20.96,67.0,428,52
2024-05-14T08:57:33Z,gmbox01,202405140857,97,23.81,893,13.2,25.2,135.0,0.0,23.12,998.1,57.9,14.60,36.41,10488,16.65,30.01,11022,21.13,64.9,421,53
2024-05-14T09:07:33Z,gmbox01,202405140907,97,24.14,929,8.4,28.8,135.0,0.0,23.38,998.0,55.9,14.72,36.42,10487,16.99,30.01,11022,21.50,63.4,423,54
2024-05-14T09:17:33Z,gmbox01,202405140917,97,24.35,941,14.4,27.6,135.0,0.0,23.61,997.9,57.3,14.90,36.43,10486,17.40,30.01,11022,21.70,64.0,425,55
2024-05-14T09:27:33Z,gmbox01,202405140927,97,24.48,964,14.4,33.6,135.0,0.0,23.81,997.9,55.2,15.06,36.44,10485,17.83,30.02,11021,21.82,61.7,422,56
2024-05-14T09:37:33Z,gmbox01,202405140937,96,24.62,977,19.2,36.0,135.0,0.0,24.01,997.8,53.2,15.27,36.47,10484,18.21,30.01,11022,21.84,60.5,417,57
2024-05-14T09:47:34Z,gmbox01,202405140947,96,24.79,1003,20.4,31.2,135.0,0.0,24.20,997.7,51.3,15.47,36.47,10484,18.49,30.02,11021,22.04,58.8,421,58
2024-05-14T09:57:33Z,gmbox01,202405140957,105,25.16,1016,15.6,32.4,135.0,0.0,24.43,997.7,52.6,15.65,36.48,10483,18.72,30.02,11021,22.51,60.7,420,59
2024-05-14T10:07:33Z,gmbox01,202405141007,95,25.02,1035,16.8,32.4,180.0,0.0,24.58,997.6,50.4,15.86,36.48,10483,19.07,30.02,11021,22.28,57.9,423,60
2024-05-14T10:17:33Z,gmbox01,202405141017,95,24.99,1038,21.6,33.6,90.0,0.0,24.68,997.5,50.8,16.03,36.49,10482,19.39,30.02,11021,22.14,59.0,423,61
2024-05-14T10:27:33Z,gmbox01,202405141027,95,25.60,1061,19.2,31.2,180.0,0.0,24.92,997.5,51.6,16.23,36.53,10479,19.64,30.01,11022,22.93,59.2,416,62
2024-05-14T10:37:33Z,gmbox01,202405141037,94,25.57,1070,10.8,36.0,45.0,0.0,25.08,997.4,51.3,16.43,36.50,10481,19.94,30.01,11022,22.79,59.8,420,63
2024-05-14T10:47:33Z,gmbox01,202405141047,93,25.29,1074,14.4,36.0,135.0,0.0,25.13,997.3,50.4,16.65,36.52,10480,20.25,30.00,11023,22.50,57.7,413,64
2024-05-14T10:57:33Z,gmbox01,202405141057,94,25.63,1083,19.2,33.6,135.0,0.0,25.26,997.2,51.9,16.88,36.57,10477,20.50,30.02,11021,22.89,59.2,418,65
2024-05-14T11:07:33Z,gmbox01,202405141107,93,25.57,1090,19.2,42.0,180.0,0.0,25.33,997.2,51.1,17.13,36.53,10479,20.73,30.02,11021,22.67,58.6,422,66
2024-05-14T11:17:33Z,gmbox01,202405141117,94,25.43,1083,19.2,42.0,135.0,0.0,25.35,997.1,50.2,17.31,36.58,10476,21.02,30.04,11020,22.51,58.3,410,67
2024-05-14T11:27:34Z,gmbox01,202405141127,93,25.77,1090,25.2,49.2,180.0,0.0,25.44,997.1,50.4,17.52,36.57,10477,21.21,30.04,11020,22.87,58.3,421,68
2024-05-14T11:37:33Z,gmbox01,202405141137,88,25.73,1096,37.2,49.2,180.0,0.0,25.50,997.0,51.5,17.73,36.57,10477,21.45,30.02,11021,22.84,58.8,416,69
2024-05-14T11:47:33Z,gmbox01,202405141147,93,25.97,1112,22.8,40.8,180.0,0.0,25.60,997.0,52.8,17.89,36.53,10479,21.53,30.02,11021,23.15,59.4,415,70
2024-05-14T11:57:33Z,gmbox01,202405141157,93,26.11,1096,22.8,38.4,180.0,0.0,25.73,996.9,47.6,18.10,36.53,10479,21.60,30.02,11021,23.25,56.7,412,71
2024-05-14T12:07:33Z,gmbox01,202405141207,93,26.17,1106,15.6,36.0,180.0,0.0,25.84,996.8,46.7,18.25,36.52,10480,21.72,30.04,11020,23.35,55.7,414,72
2024-05-14T12:17:33Z,gmbox01,202405141217,92,26.58,1138,21.6,39.6,135.0,0.0,26.03,996.7,47.7,18.45,36.52,10480,21.79,30.04,11020,23.78,55.3,415,73
2024-05-14T12:27:33Z,gmbox01,202405141227,92,26.28,1087,10.8,43.2,180.0,0.0,26.10,996.6,45.4,18.61,36.50,10481,21.94,30.02,11021,23.42,53.4,411,74
2024-05-14T12:37:34Z,gmbox01,202405141237,93,26.65,1070,20.4,39.6,180.0,0.0,26.24,996.6,45.3,18.77,36.50,10481,21.98,30.12,11014,23.89,53.2,413,75
2024-05-14T12:47:33Z,gmbox01,202405141247,92,26.78,1051,43.2,43.2,135.0,0.0,26.37,996.5,47.3,18.92,36.49,10482,22.03,30.10,11015,23.91,54.6,410,76
2024-05-14T12:57:34Z,gmbox01,202405141257,92,26.68,1070,27.6,43.2,135.0,0.0,26.46,996.4,44.9,19.03,36.50,10481,22.09,30.07,11017,23.83,53.5,417,77
2024-05-14T13:07:33Z,gmbox01,202405141307,92,26.44,1035,25.2,49.2,135.0,0.0,26.45,996.4,43.3,19.18,36.48,10483,22.24,30.08,11016,23.55,52.0,408,78
2024-05-14T13:17:34Z,gmbox01,202405141317,92,26.55,1009,21.6,44.4,135.0,0.0,26.47,996.3,44.4,19.32,36.48,10483,22.33,30.08,11016,23.81,51.9,412,79
2024-05-14T13:27:37Z,gmbox01,202405141327,92,26.41,1006,25.2,46.8,180.0,0.0,26.46,996.2,43.5,19.47,36.48,10483,22.40,30.08,11016,23.55,51.1,413,80
2024-05-14T13:37:33Z,gmbox01,202405141337,92,26.41,977,16.8,38.4,180.0,0.0,26.44,996.2,44.7,19.58,36.48,10483,22.38,30.07,11017,23.56,51.2,412,81
2024-05-14T13:47:34Z,gmbox01,202405141347,92,26.41,954,25.2,43.2,90.0,0.0,26.42,996.2,42.3,19.70,36.47,10484,22.37,30.02,11021,23.47,50.1,413,82
2024-05-14T13:57:34Z,gmbox01,202405141357,92,26.44,912,27.6,39.6,180.0,0.0,26.42,996.1,43.7,19.80,36.44,10485,22.33,30.04,11020,23.65,50.1,405,83
2024-05-14T14:07:34Z,gmbox01,202405141407,92,26.21,906,33.6,43.2,180.0,0.0,26.38,996.1,40.6,19.93,36.43,10486,22.30,30.07,11017,23.33,48.6,410,84
2024-05-14T14:17:33Z,gmbox01,202405141417,93,26.21,883,25.2,39.6,135.0,0.0,26.34,996.1,42.6,19.98,36.42,10487,22.12,30.08,11016,23.42,50.1,409,85
2024-05-14T14:27:34Z,gmbox01,202405141427,92,26.28,845,26.4,45.6,135.0,0.0,26.32,996.0,39.1,20.06,36.42,10487,22.01,30.06,11018,23.41,47.1,412,86
2024-05-14T14:37:34Z,gmbox01,202405141437,93,26.44,829,22.8,48.0,180.0,0.0,26.35,996.0,43.3,20.14,36.41,10488,21.88,30.02,11021,23.79,49.5,406,87
2024-05-14T14:47:34Z,gmbox01,202405141447,93,26.41,790,19.2,40.8,180.0,0.0,26.36,996.0,41.5,20.19,36.40,10489,21.67,30.01,11022,23.66,48.6,405,88
2024-05-14T14:57:34Z,gmbox01,202405141457,93,26.17,777,33.6,39.6,180.0,0.0,26.31,995.9,39.5,20.21,36.38,10490,21.59,30.01,11022,23.31,47.4,407,89
2024-05-14T15:07:34Z,gmbox01,202405141507,93,26.11,719,18.0,39.6,135.0,0.0,26.24,995.9,42.8,20.23,36.38,10490,21.51,29.93,11029,23.43,49.4,406,90
2024-05-14T15:17:34Z,gmbox01,202405141517,94,26.34,722,18.0,31.2,157.5,0.0,26.26,995.8,41.3,20.25,36.33,10493,21.41,29.95,11027,23.60,48.7,404,91
2024-05-14T15:27:35Z,gmbox01,202405141527,93,26.17,716,14.4,33.6,135.0,0.0,26.24,995.8,42.2,20.24,36.30,10496,21.39,29.97,11026,23.49,49.4,413,92
2024-05-14T15:37:34Z,gmbox01,202405141537,94,26.14,622,22.8,31.2,180.0,0.0,26.22,995.8,39.3,20.22,36.25,10499,21.35,29.95,11027,23.39,47.5,404,93
2024-05-14T15:47:35Z,gmbox01,202405141547,94,26.14,651,21.6,32.4,180.0,0.0,26.20,995.8,40.9,20.21,36.23,10501,21.30,30.01,11022,23.41,47.7,405,94
2024-05-14T15:57:34Z,gmbox01,202405141557,95,26.14,583,16.8,32.4,135.0,0.0,26.19,995.7,42.9,20.13,36.20,10502,21.17,29.99,11024,23.52,49.7,406,95
2024-05-14T16:07:34Z,gmbox01,202405141607,94,25.63,548,18.0,31.2,180.0,0.0,26.05,995.7,40.9,20.07,36.19,10503,20.98,29.97,11026,22.90,48.3,406,96
2024-05-14T16:17:34Z,gmbox01,202405141617,94,25.57,267,8.4,30.0,180.0,0.0,25.93,995.6,44.2,20.07,36.19,10503,20.80,29.95,11027,23.02,50.7,408,97
2024-05-14T16:27:34Z,gmbox01,202405141627,94,25.60,167,16.8,36.0,135.0,0.0,25.85,995.6,43.9,19.95,36.19,10503,20.58,29.90,11032,22.99,50.3,408,98
2024-05-14T16:37:34Z,gmbox01,202405141637,93,25.29,106,10.8,33.6,157.5,0.0,25.69,995.5,43.2,19.96,36.18,10504,20.34,29.92,11030,22.65,49.8,409,99
2024-05-14T16:47:34Z,gmbox01,202405141647,95,25.19,93,14.4,26.4,180.0,0.0,25.54,995.5,42.3,19.89,36.16,10505,20.23,29.87,11034,22.55,49.1,406,100
2024-05-14T16:57:34Z,gmbox01,202405141657,94,25.06,112,14.4,42.0,135.0,0.0,25.40,995.5,41.8,19.84,36.15,10506,19.98,29.92,11030,22.32,49.2,403,101
2024-05-14T17:07:34Z,gmbox01,202405141707,93,24.38,100,9.6,31.2,180.0,0.0,25.15,995.5,47.4,19.75,36.14,10507,19.80,29.76,11043,22.03,53.4,409,102
2024-05-14T17:17:34Z,gmbox01,202405141717,93,24.38,93,18.0,31.2,112.5,0.0,24.91,995.5,42.9,19.68,36.12,10508,19.64,29.73,11045,21.66,49.7,409,103
2024-05-14T17:27:34Z,gmbox01,202405141727,94,23.81,70,9.6,21.6,180.0,0.0,24.63,995.6,46.2,19.58,36.10,10509,19.48,29.71,11047,21.43,51.6,410,104
2024-05-14T17:37:34Z,gmbox01,202405141737,94,23.57,61,7.2,21.6,135.0,0.0,24.36,995.6,46.7,19.48,36.09,10510,19.32,29.69,11049,21.23,51.8,414,105
2024-05-14T17:47:34Z,gmbox01,202405141747,95,23.67,45,8.4,20.4,135.0,0.0,24.14,995.6,43.8,19.42,36.09,10510,19.22,29.66,11051,21.16,50.1,409,106
2024-05-14T17:57:34Z,gmbox01,202405141757,93,23.43,38,7.2,16.8,135.0,0.0,23.95,995.7,45.5,19.33,36.07,10512,19.10,29.64,11053,21.14,50.9,412,107
2024-05-14T18:07:34Z,gmbox01,202405141807,93,22.56,51,0.0,14.4,270.0,0.0,23.59,995.7,49.0,19.27,36.06,10513,19.00,29.64,11053,20.80,53.7,421,108
2024-05-14T18:17:34Z,gmbox01,202405141817,94,22.35,38,2.4,9.6,270.0,0.0,23.22,995.8,54.3,19.17,36.06,10513,18.88,29.62,11055,20.59,57.9,427,109
2024-05-14T18:27:34Z,gmbox01,202405141827,94,21.54,35,0.0,6.0,270.0,0.0,22.79,995.9,58.8,19.05,36.03,10514,18.75,29.61,11056,20.19,62.0,423,110
2024-05-14T18:37:34Z,gmbox01,202405141837,93,21.03,0,0.0,6.0,270.0,0.0,22.31,996.0,62.1,19.00,36.02,10515,18.68,29.59,11057,19.35,66.6,414,111
2024-05-14T18:47:34Z,gmbox01,202405141847,94,20.26,0,2.4,6.0,270.0,0.0,21.74,996.1,65.5,18.93,36.01,10516,18.59,29.58,11058,18.40,70.8,419,112
2024-05-14T18:57:34Z,gmbox01,202405141857,94,20.02,0,0.0,3.6,270.0,0.0,21.24,996.2,68.1,18.82,36.01,10516,18.43,29.57,11059,18.54,71.5,417,113
2024-05-14T19:07:34Z,gmbox01,202405141907,94,19.41,0,0.0,0.0,270.0,0.0,20.71,996.3,67.8,18.78,35.99,10517,18.30,29.56,11060,18.14,71.3,415,114
2024-05-14T19:17:34Z,gmbox01,202405141917,94,19.01,0,0.0,0.0,270.0,0.0,20.23,996.4,70.1,18.70,35.98,10518,18.17,29.56,11060,17.67,74.4,416,115
2024-05-14T19:27:34Z,gmbox01,202405141927,95,18.67,0,0.0,0.0,270.0,0.0,19.76,996.5,73.8,18.62,35.98,10518,18.00,29.54,11061,17.35,77.9,431,116
2024-05-14T19:37:34Z,gmbox01,202405141937,95,18.64,0,0.0,0.0,270.0,0.0,19.44,996.6,74.6,18.52,35.95,10520,17.85,29.53,11062,17.28,79.6,446,117
2024-05-14T19:47:34Z,gmbox01,202405141947,96,18.64,0,0.0,0.0,270.0,0.0,19.21,996.7,75.0,18.41,35.95,10520,17.78,29.50,11064,17.67,78.6,448,118
2024-05-14T19:57:34Z,gmbox01,202405141957,94,18.37,0,0.0,0.0,270.0,0.0,18.99,996.9,76.8,18.34,35.95,10520,17.70,29.49,11065,17.35,80.6,475,119
2024-05-14T20:07:34Z,gmbox01,202405142007,94,18.37,0,0.0,6.0,270.0,0.0,18.76,997.0,78.8,18.27,35.93,10521,17.61,29.48,11066,16.62,85.6,485,120
2024-05-14T20:17:34Z,gmbox01,202405142017,95,18.27,0,0.0,0.0,270.0,0.0,18.57,997.1,81.0,18.17,35.93,10521,17.52,29.47,11067,17.02,85.6,480,121
2024-05-14T20:27:34Z,gmbox01,202405142027,95,18.16,0,0.0,0.0,270.0,0.0,18.41,997.2,79.9,18.13,35.91,10523,17.47,29.47,11067,16.73,85.1,470,122
2024-05-14T20:37:35Z,gmbox01,202405142037,93,18.10,0,0.0,6.0,270.0,0.0,18.28,997.2,78.7,18.02,35.91,10523,17.39,29.47,11067,16.63,85.0,481,123
2024-05-14T20:47:34Z,gmbox01,202405142047,95,17.96,0,0.0,0.0,270.0,0.0,18.14,997.3,80.6,17.96,35.90,10524,17.30,29.46,11068,16.74,85.8,487,124
2024-05-14T20:57:34Z,gmbox01,202405142057,95,18.03,0,3.6,3.6,315.0,0.0,18.07,997.4,77.9,17.89,35.87,10525,17.27,29.44,11069,16.53,83.9,482,125
2024-05-14T21:07:34Z,gmbox01,202405142107,95,18.47,0,1.2,13.2,315.0,0.0,18.14,997.4,74.3,17.82,35.86,10526,17.23,29.46,11068,16.84,80.8,427,126
2024-05-14T21:17:35Z,gmbox01,202405142117,96,18.43,0,6.0,12.0,315.0,0.0,18.18,997.5,73.4,17.75,35.86,10526,17.16,29.46,11068,16.54,80.6,410,127
2024-05-14T21:27:35Z,gmbox01,202405142127,95,18.20,0,0.0,7.2,270.0,0.0,18.12,997.5,75.4,17.66,35.86,10526,17.09,29.44,11069,16.53,81.7,414,128